Flag for Japan Weather past 2 weeks in Nagano, Japan

Now
80 °F

Passing clouds.


Feels Like: 81 °F
Forecast: 69 / 94 °F
Wind: 3 mph from South

Location: Nagano

Current Time: Jul 30, 2014 at 10:10:35 AM

Latest Report: Jul 30, 2014 at 9:00 AM


Visibility: 9 mi

Pressure: 29.99 "Hg

Humidity: 58%

Dew point: 64 °F

Location of NaganoLocation

Historic Weather in Nagano — Graph

°F

Nagano temperature yesterday

Maximum temperature yesterday: 91 °F (at 3:00 PM)
Minimum temperature yesterday: 64 °F (at 5:00 AM)
Average temperature yesterday: 77 °F

Past Weeks' High & Low Weather Summary

 TemperatureHumidityPressure
High99 °F (Jul 26, 4:00 PM)97% (Jul 18, 1:00 AM)30.03 "Hg (Jul 18, 1:00 AM)
Low64 °F (Jul 29, 5:00 AM)33% (Jul 29, 1:00 PM)29.62 "Hg (Jul 23, 1:00 PM)
Average77 °F72%29.82 "Hg
* Reported Jul 15 8:00 AM — Jul 30 8:00 AM, Nagano, Weather by CustomWeather, © 2014

Note: Actual official high and low records may vary slightly from our data, if they occured in-between our weather recording intervals... More about our weather records

Advertising

Nagano weather history for previous 24 hours

 ConditionsComfort  
Time TempWeatherWind HumidityBarometerVisibility
8:00 AM
Jul 30
76 °FMild.2 mph63%30.01 "HgN/A
7:00 AM73 °FMild.2 mph71%30.03 "HgN/A
6:00 AM70 °FMild.2 mph76%30.03 "HgN/A
5:00 AM70 °FMild.1 mph76%30.02 "HgN/A
4:00 AM72 °FMild.6 mph70%29.99 "HgN/A
3:00 AM73 °FPassing clouds.7 mph66%29.98 "Hg9 mi
2:00 AM75 °FMild.5 mph61%29.97 "HgN/A
1:00 AM76 °FMild.12 mph58%29.96 "HgN/A
12:00 AM77 °FWarm.9 mph55%29.95 "HgN/A
11:00 PM
Jul 29
78 °FWarm.8 mph56%29.94 "HgN/A
10:00 PM78 °FWarm.5 mph57%29.93 "HgN/A
9:00 PM78 °FOvercast.1 mph68%29.93 "Hg6 mi
8:00 PM79 °FWarm.1 mph66%29.91 "HgN/A
7:00 PM80 °FWarm.6 mph62%29.88 "HgN/A
6:00 PM82 °FWarm.3 mph58%29.85 "HgN/A
5:00 PM83 °FWarm.10 mph56%29.82 "HgN/A
4:00 PM87 °FWarm.8 mph50%29.80 "HgN/A
3:00 PM91 °FOvercast.5 mph35%29.79 "Hg16 mi
2:00 PM90 °FHot.3 mph37%29.80 "HgN/A
1:00 PM90 °FHot.7 mph33%29.82 "HgN/A
12:00 PM88 °FHot.8 mph37%29.85 "HgN/A
11:00 AM85 °FWarm.7 mph46%29.88 "HgN/A
10:00 AM82 °FWarm.8 mph49%29.90 "HgN/A
Weather by CustomWeather, © 2014

See weather overviewHow to use our weather pages